| time (UTC) | temp C | wind direction | speed KPH | gust KPH | rain 1hr cm | rain 24hr cm | rain mn cm | humidity % | barometer mb |
| 20260503072504 | 4 | 305 | 14.5 | 24.1 | 0.00 | 0.00 | 0.00 | 47 | 1002.4 |
| 20260503071504 | 3 | 275 | 8.0 | 16.1 | 0.00 | 0.00 | 0.00 | 47 | 1002.3 |
| 20260503071004 | 3 | 319 | 12.9 | 20.9 | 0.00 | 0.00 | 0.00 | 46 | 1002.3 |
| 20260503055003 | 2 | 290 | 6.4 | 14.5 | 0.00 | 0.00 | 0.00 | 55 | 1002.1 |
| 20260503054504 | 2 | 321 | 1.6 | 14.5 | 0.00 | 0.00 | 0.00 | 56 | 1002.2 |
| 20260503054004 | 2 | 245 | 3.2 | 12.9 | 0.00 | 0.00 | 0.00 | 57 | 1002.2 |
| 20260503053503 | 2 | 305 | 9.7 | 19.3 | 0.00 | 0.00 | 0.00 | 57 | 1002.2 |
| 20260503053003 | 2 | 326 | 11.3 | 20.9 | 0.00 | 0.00 | 0.00 | 57 | 1002.2 |
| 20260503052504 | 2 | 305 | 12.9 | 19.3 | 0.00 | 0.00 | 0.00 | 58 | 1002.2 |
| 20260503052004 | 2 | 316 | 9.7 | 16.1 | 0.00 | 0.00 | 0.00 | 61 | 1002.3 |
| 20260503051503 | 2 | 304 | 11.3 | 20.9 | 0.00 | 0.00 | 0.00 | 61 | 1002.2 |
| 20260503051004 | 2 | 301 | 11.3 | 22.5 | 0.00 | 0.00 | 0.00 | 62 | 1002.1 |
| 20260503050503 | 1 | 299 | 14.5 | 19.3 | 0.00 | 0.00 | 0.00 | 63 | 1002.1 |
| 20260503050005 | 1 | 294 | 11.3 | 19.3 | 0.00 | 0.00 | 0.00 | 65 | 1002.1 |
| 20260503045504 | 1 | 311 | 9.7 | 19.3 | 0.00 | 0.00 | 0.00 | 66 | 1002.1 |
| 20260503045004 | 1 | 311 | 16.1 | 22.5 | 0.00 | 0.00 | 0.00 | 67 | 1002.0 |
| 20260503044504 | 1 | 295 | 9.7 | 19.3 | 0.00 | 0.00 | 0.00 | 69 | 1001.9 |
| 20260503043503 | 1 | 308 | 8.0 | 19.3 | 0.00 | 0.00 | 0.00 | 71 | 1001.8 |
| 20260503043004 | 1 | 307 | 11.3 | 19.3 | 0.00 | 0.00 | 0.00 | 72 | 1001.7 |
| 20260503042004 | 1 | 309 | 8.0 | 19.3 | 0.00 | 0.00 | 0.00 | 74 | 1001.7 |
| 20260503041504 | 1 | 295 | 8.0 | 16.1 | 0.00 | 0.00 | 0.00 | 75 | 1001.7 |
| 20260503041004 | 0 | 303 | 9.7 | 19.3 | 0.00 | 0.00 | 0.00 | 75 | 1001.6 |
| 20260503040503 | 0 | 301 | 8.0 | 22.5 | 0.00 | 0.00 | 0.00 | 76 | 1001.6 |
| 20260503040004 | 0 | 312 | 12.9 | 22.5 | 0.00 | 0.00 | 0.00 | 76 | 1001.6 |
| 20260503035503 | 0 | 288 | 6.4 | 16.1 | 0.00 | 0.00 | 0.00 | 78 | 1001.6 |
| 20260503035004 | 0 | 303 | 11.3 | 19.3 | 0.00 | 0.00 | 0.00 | 79 | 1001.6 |
| 20260503034504 | 0 | 311 | 4.8 | 11.3 | 0.00 | 0.00 | 0.00 | 81 | 1001.6 |
| 20260503034004 | -1 | 302 | 0.0 | 0.0 | 0.00 | 0.00 | 0.00 | 82 | 1001.6 |
| 20260503033504 | -1 | 302 | 0.0 | 0.0 | 0.00 | 0.00 | 0.00 | 83 | 1001.6 |
| 20260503033004 | -1 | 295 | 0.0 | 0.0 | 0.00 | 0.00 | 0.00 | 84 | 1001.5 |
| 20260503032503 | -2 | 295 | 0.0 | 0.0 | 0.00 | 0.00 | 0.00 | 85 | 1001.5 |
| 20260503031504 | -2 | 249 | 0.0 | 0.0 | 0.00 | 0.00 | 0.00 | 85 | 1001.4 |
| 20260503031004 | -2 | 249 | 0.0 | 0.0 | 0.00 | 0.00 | 0.00 | 85 | 1001.4 |
| 20260503030004 | -2 | 249 | 0.0 | 0.0 | 0.00 | 0.00 | 0.00 | 84 | 1001.4 |
| 20260503025504 | -2 | 249 | 0.0 | 0.0 | 0.00 | 0.00 | 0.00 | 84 | 1001.3 |
| 20260503025003 | -2 | 249 | 0.0 | 0.0 | 0.00 | 0.00 | 0.00 | 83 | 1001.3 |
| 20260503024504 | -2 | 249 | 0.0 | 0.0 | 0.00 | 0.00 | 0.00 | 84 | 1001.3 |
| 20260503024004 | -2 | 249 | 0.0 | 0.0 | 0.00 | 0.00 | 0.00 | 84 | 1001.2 |
| 20260503023504 | -2 | 249 | 0.0 | 0.0 | 0.00 | 0.00 | 0.00 | 84 | 1001.2 |
| 20260503023004 | -2 | 250 | 0.0 | 0.0 | 0.00 | 0.00 | 0.00 | 85 | 1001.2 |
| 20260503022503 | -2 | 250 | 0.0 | 0.0 | 0.00 | 0.00 | 0.00 | 87 | 1001.0 |
| 20260503021504 | -3 | 238 | 0.0 | 0.0 | 0.00 | 0.00 | 0.00 | 85 | 1000.9 |
| 20260503021003 | -2 | 238 | 0.0 | 0.0 | 0.00 | 0.00 | 0.00 | 85 | 1000.9 |
| 20260503020503 | -2 | 238 | 0.0 | 0.0 | 0.00 | 0.00 | 0.00 | 84 | 1000.8 |
| 20260503020004 | -2 | 238 | 0.0 | 0.0 | 0.00 | 0.00 | 0.00 | 84 | 1000.8 |
| 20260503015004 | -2 | 238 | 0.0 | 0.0 | 0.00 | 0.00 | 0.00 | 84 | 1000.6 |
| 20260503014504 | -2 | 238 | 0.0 | 0.0 | 0.00 | 0.00 | 0.00 | 84 | 1000.6 |
| 20260503014004 | -2 | 238 | 0.0 | 0.0 | 0.00 | 0.00 | 0.00 | 84 | 1000.7 |
| 20260503013504 | -2 | 250 | 0.0 | 0.0 | 0.00 | 0.00 | 0.00 | 84 | 1000.6 |
| 20260503013003 | -2 | 250 | 0.0 | 0.0 | 0.00 | 0.00 | 0.00 | 83 | 1000.6 |
| 20260503012504 | -2 | 250 | 0.0 | 0.0 | 0.00 | 0.00 | 0.00 | 85 | 1000.6 |
| 20260503011503 | -2 | 268 | 0.0 | 0.0 | 0.00 | 0.00 | 0.00 | 84 | 1000.6 |
| 20260503010504 | -2 | 273 | 0.0 | 0.0 | 0.00 | 0.00 | 0.00 | 83 | 1000.5 |
| 20260503010004 | -2 | 274 | 0.0 | 0.0 | 0.00 | 0.00 | 0.00 | 81 | 1000.5 |
| 20260503005504 | -2 | 274 | 0.0 | 0.0 | 0.00 | 0.00 | 0.00 | 80 | 1000.5 |
| 20260503005003 | -2 | 274 | 0.0 | 0.0 | 0.00 | 0.00 | 0.00 | 81 | 1000.4 |
| 20260503004004 | -1 | 275 | 0.0 | 0.0 | 0.00 | 0.00 | 0.00 | 79 | 1000.4 |
| 20260503003504 | -1 | 299 | 0.0 | 0.0 | 0.00 | 0.00 | 0.00 | 79 | 1000.5 |
| 20260503003003 | -1 | 299 | 0.0 | 0.0 | 0.00 | 0.00 | 0.00 | 78 | 1000.5 |
| 20260503002503 | -1 | 300 | 0.0 | 0.0 | 0.00 | 0.00 | 0.00 | 80 | 1000.4 |
| 20260503001504 | -1 | 265 | 0.0 | 0.0 | 0.00 | 0.00 | 0.00 | 80 | 1000.4 |
| 20260503001004 | -1 | 265 | 0.0 | 0.0 | 0.00 | 0.00 | 0.00 | 79 | 1000.4 |
| 20260503000504 | -1 | 265 | 0.0 | 0.0 | 0.00 | 0.00 | 0.00 | 78 | 1000.4 |
| 20260503000005 | -1 | 263 | 0.0 | 0.0 | 0.00 | 0.00 | 0.00 | 78 | 1000.5 |
| 20260502235505 | -1 | 263 | 0.0 | 0.0 | 0.00 | 0.00 | 0.00 | 77 | 1000.5 |
| 20260502234505 | 0 | 244 | 0.0 | 0.0 | 0.00 | 0.00 | 0.00 | 75 | 1000.4 |
| 20260502234009 | 0 | 244 | 0.0 | 0.0 | 0.00 | 0.00 | 0.00 | 73 | 1000.4 |
| 20260502233504 | 0 | 244 | 0.0 | 0.0 | 0.00 | 0.00 | 0.00 | 73 | 1000.4 |
| 20260502233005 | 0 | 244 | 0.0 | 0.0 | 0.00 | 0.00 | 0.00 | 72 | 1000.4 |
| 20260502232506 | 0 | 244 | 0.0 | 0.0 | 0.00 | 0.00 | 0.00 | 72 | 1000.3 |
| 20260502232005 | 1 | 244 | 0.0 | 0.0 | 0.00 | 0.00 | 0.00 | 72 | 1000.3 |
| 20260502231504 | 1 | 270 | 1.6 | 14.5 | 0.00 | 0.00 | 0.00 | 72 | 1000.3 |
| 20260502231004 | 1 | 287 | 9.7 | 14.5 | 0.00 | 0.00 | 0.00 | 71 | 1000.2 |
| 20260502230504 | 1 | 256 | 8.0 | 14.5 | 0.00 | 0.00 | 0.00 | 71 | 1000.3 |
| 20260502230004 | 1 | 288 | 8.0 | 16.1 | 0.00 | 0.00 | 0.00 | 71 | 1000.3 |
| 20260502225503 | 1 | 274 | 8.0 | 19.3 | 0.00 | 0.00 | 0.00 | 71 | 1000.3 |
| 20260502225004 | 1 | 268 | 8.0 | 14.5 | 0.00 | 0.00 | 0.00 | 71 | 1000.5 |
| 20260502224504 | 1 | 291 | 6.4 | 11.3 | 0.00 | 0.00 | 0.00 | 71 | 1000.5 |
| 20260502223004 | 1 | 256 | 1.6 | 12.9 | 0.00 | 0.00 | 0.00 | 70 | 1000.4 |
| 20260502222004 | 1 | 274 | 0.0 | 0.0 | 0.00 | 0.00 | 0.00 | 69 | 1000.5 |
| 20260502221004 | 1 | 282 | 0.0 | 0.0 | 0.00 | 0.00 | 0.00 | 68 | 1000.7 |
| 20260502220504 | 1 | 289 | 0.0 | 0.0 | 0.00 | 0.00 | 0.00 | 68 | 1000.7 |
| 20260502220004 | 1 | 283 | 0.0 | 0.0 | 0.00 | 0.00 | 0.00 | 67 | 1000.7 |
| 20260502215503 | 1 | 257 | 0.0 | 4.8 | 0.00 | 0.00 | 0.00 | 67 | 1000.6 |
| 20260502215004 | 1 | 285 | 4.8 | 9.7 | 0.00 | 0.00 | 0.00 | 65 | 1000.7 |
| 20260502214504 | 1 | 283 | 3.2 | 16.1 | 0.00 | 0.00 | 0.00 | 65 | 1000.7 |
| 20260502213004 | 2 | 307 | 8.0 | 11.3 | 0.00 | 0.00 | 0.00 | 65 | 1000.7 |
| 20260502212503 | 2 | 300 | 6.4 | 12.9 | 0.00 | 0.00 | 0.00 | 65 | 1000.6 |
| 20260502211504 | 2 | 264 | 8.0 | 14.5 | 0.00 | 0.00 | 0.00 | 64 | 1000.6 |
| 20260502211003 | 2 | 299 | 4.8 | 16.1 | 0.00 | 0.00 | 0.00 | 64 | 1000.6 |
| 20260502210503 | 2 | 278 | 1.6 | 16.1 | 0.00 | 0.00 | 0.00 | 63 | 1000.6 |
| 20260502210004 | 2 | 283 | 8.0 | 19.3 | 0.00 | 0.00 | 0.00 | 64 | 1000.6 |
| 20260502205005 | 1 | 292 | 3.2 | 16.1 | 0.00 | 0.00 | 0.00 | 64 | 1000.6 |
| 20260502204504 | 1 | 296 | 6.4 | 16.1 | 0.00 | 0.00 | 0.00 | 63 | 1000.6 |
| 20260502203504 | 1 | 286 | 3.2 | 9.7 | 0.00 | 0.00 | 0.00 | 60 | 1000.6 |
| 20260502203004 | 2 | 298 | 4.8 | 8.0 | 0.00 | 0.00 | 0.00 | 60 | 1000.6 |
| 20260502202503 | 2 | 298 | 3.2 | 4.8 | 0.00 | 0.00 | 0.00 | 60 | 1000.6 |
| 20260502201504 | 2 | 279 | 9.7 | 16.1 | 0.00 | 0.00 | 0.00 | 60 | 1000.6 |
| 20260502201004 | 2 | 285 | 4.8 | 11.3 | 0.00 | 0.00 | 0.00 | 59 | 1000.6 |
| 20260502195504 | 2 | 280 | 6.4 | 14.5 | 0.00 | 0.00 | 0.00 | 58 | 1000.6 |
| 20260502195004 | 2 | 281 | 0.0 | 0.0 | 0.00 | 0.00 | 0.00 | 57 | 1000.6 |
| 20260502194504 | 2 | 223 | 3.2 | 8.0 | 0.00 | 0.00 | 0.00 | 55 | 1000.5 |
| 20260502194003 | 3 | 313 | 4.8 | 11.3 | 0.00 | 0.00 | 0.00 | 54 | 1000.6 |
| 20260502193504 | 3 | 270 | 0.0 | 11.3 | 0.00 | 0.00 | 0.00 | 53 | 1000.6 |
| 20260502193004 | 3 | 294 | 0.0 | 8.0 | 0.00 | 0.00 | 0.00 | 53 | 1000.5 |
| 20260502192504 | 3 | 279 | 4.8 | 14.5 | 0.00 | 0.00 | 0.00 | 52 | 1000.5 |
| 20260502192004 | 3 | 283 | 11.3 | 20.9 | 0.00 | 0.00 | 0.00 | 52 | 1000.4 |
| 20260502191503 | 3 | 289 | 8.0 | 14.5 | 0.00 | 0.00 | 0.00 | 51 | 1000.4 |
| 20260502191003 | 3 | 296 | 8.0 | 19.3 | 0.00 | 0.00 | 0.00 | 51 | 1000.4 |
| 20260502190504 | 3 | 298 | 6.4 | 19.3 | 0.00 | 0.00 | 0.00 | 51 | 1000.4 |
| 20260502190004 | 4 | 282 | 9.7 | 19.3 | 0.00 | 0.00 | 0.00 | 50 | 1000.3 |
| 20260502185504 | 4 | 222 | 9.7 | 19.3 | 0.00 | 0.00 | 0.00 | 50 | 1000.3 |
| 20260502185004 | 4 | 281 | 9.7 | 20.9 | 0.00 | 0.00 | 0.00 | 51 | 1000.3 |
| 20260502184504 | 4 | 243 | 4.8 | 16.1 | 0.00 | 0.00 | 0.00 | 52 | 1000.2 |
| 20260502184004 | 4 | 295 | 8.0 | 19.3 | 0.00 | 0.00 | 0.00 | 52 | 1000.0 |
| 20260502183504 | 4 | 241 | 3.2 | 16.1 | 0.00 | 0.00 | 0.00 | 52 | 1000.1 |
| 20260502182504 | 5 | 298 | 6.4 | 12.9 | 0.00 | 0.00 | 0.00 | 50 | 1000.2 |
| 20260502182004 | 5 | 229 | 4.8 | 14.5 | 0.00 | 0.00 | 0.00 | 50 | 1000.2 |
| 20260502181503 | 5 | 255 | 9.7 | 12.9 | 0.00 | 0.00 | 0.00 | 49 | 1000.2 |
| 20260502181004 | 5 | 248 | 1.6 | 9.7 | 0.00 | 0.00 | 0.00 | 48 | 1000.2 |
| 20260502170504 | 6 | 285 | 12.9 | 24.1 | 0.00 | 0.00 | 0.00 | 46 | 999.9 |
| 20260502164004 | 7 | 281 | 12.9 | 22.5 | 0.00 | 0.00 | 0.00 | 47 | 1000.0 |
| 20260502163504 | 7 | 271 | 1.6 | 16.1 | 0.00 | 0.00 | 0.00 | 48 | 999.9 |
| 20260502163004 | 7 | 280 | 11.3 | 22.5 | 0.00 | 0.00 | 0.00 | 47 | 999.9 |
| 20260502162504 | 7 | 253 | 8.0 | 22.5 | 0.00 | 0.00 | 0.00 | 46 | 1000.0 |
| 20260502162004 | 7 | 299 | 14.5 | 22.5 | 0.00 | 0.00 | 0.00 | 45 | 999.9 |
| 20260502160503 | 7 | 338 | 12.9 | 24.1 | 0.00 | 0.00 | 0.00 | 44 | 999.7 |
| 20260502152004 | 8 | 303 | 14.5 | 27.4 | 0.00 | 0.00 | 0.00 | 49 | 999.6 |
| 20260502151504 | 8 | 304 | 9.7 | 24.1 | 0.00 | 0.00 | 0.00 | 48 | 999.6 |
| 20260502151004 | 8 | 302 | 11.3 | 24.1 | 0.00 | 0.00 | 0.00 | 48 | 999.5 |
| 20260502150504 | 9 | 269 | 8.0 | 24.1 | 0.00 | 0.00 | 0.00 | 47 | 999.5 |
| 20260502123004 | 10 | 304 | 4.8 | 25.7 | 0.00 | 0.00 | 0.00 | 54 | 999.2 |
| 20260502122504 | 10 | 270 | 4.8 | 19.3 | 0.00 | 0.00 | 0.00 | 54 | 999.1 |
| 20260502121504 | 10 | 261 | 14.5 | 22.5 | 0.00 | 0.00 | 0.00 | 53 | 999.1 |
| 20260502120504 | 10 | 277 | 16.1 | 32.2 | 0.00 | 0.00 | 0.00 | 53 | 999.0 |
| 20260502115003 | 10 | 263 | 14.5 | 32.2 | 0.00 | 0.00 | 0.00 | 53 | 999.2 |
| 20260502114504 | 11 | 278 | 16.1 | 29.0 | 0.00 | 0.00 | 0.00 | 53 | 999.1 |
| 20260502114004 | 11 | 295 | 16.1 | 29.0 | 0.00 | 0.00 | 0.00 | 54 | 999.1 |
| 20260502113504 | 11 | 297 | 14.5 | 32.2 | 0.00 | 0.00 | 0.00 | 57 | 999.2 |
| 20260502113004 | 11 | 277 | 20.9 | 38.6 | 0.00 | 0.00 | 0.00 | 55 | 999.2 |
| 20260502112503 | 11 | 237 | 8.0 | 24.1 | 0.00 | 0.00 | 0.00 | 58 | 999.2 |
| 20260502112004 | 11 | 246 | 4.8 | 29.0 | 0.00 | 0.00 | 0.00 | 59 | 999.2 |
| 20260502111504 | 10 | 260 | 11.3 | 29.0 | 0.00 | 0.00 | 0.00 | 59 | 999.4 |
| 20260502111004 | 10 | 264 | 11.3 | 32.2 | 0.00 | 0.00 | 0.00 | 58 | 999.2 |
| 20260502110503 | 11 | 300 | 19.3 | 32.2 | 0.00 | 0.00 | 0.00 | 57 | 999.2 |
| 20260502110004 | 11 | 286 | 14.5 | 29.0 | 0.00 | 0.00 | 0.00 | 56 | 999.1 |
| 20260502105504 | 11 | 276 | 11.3 | 41.8 | 0.00 | 0.00 | 0.00 | 59 | 999.1 |
| 20260502105003 | 10 | 290 | 8.0 | 33.8 | 0.00 | 0.00 | 0.00 | 60 | 999.1 |
| 20260502104504 | 10 | 263 | 6.4 | 22.5 | 0.00 | 0.00 | 0.00 | 60 | 999.1 |
| 20260502104004 | 10 | 279 | 11.3 | 25.7 | 0.00 | 0.00 | 0.00 | 59 | 999.0 |
| 20260502103503 | 10 | 279 | 8.0 | 20.9 | 0.00 | 0.00 | 0.00 | 60 | 999.1 |
| 20260502103004 | 10 | 265 | 1.6 | 16.1 | 0.00 | 0.00 | 0.00 | 60 | 999.0 |
| 20260502102503 | 10 | 244 | 6.4 | 20.9 | 0.00 | 0.00 | 0.00 | 58 | 999.0 |
| 20260502102003 | 10 | 256 | 8.0 | 22.5 | 0.00 | 0.00 | 0.00 | 59 | 999.0 |
| 20260502101504 | 10 | 241 | 6.4 | 29.0 | 0.00 | 0.00 | 0.00 | 59 | 998.9 |
| 20260502101003 | 10 | 263 | 3.2 | 9.7 | 0.00 | 0.00 | 0.00 | 59 | 998.9 |
| 20260502100503 | 10 | 294 | 1.6 | 24.1 | 0.00 | 0.00 | 0.00 | 59 | 998.9 |
| 20260502091504 | 10 | 288 | 12.9 | 27.4 | 0.00 | 0.00 | 0.00 | 61 | 999.0 |
| 20260502090505 | 10 | 306 | 17.7 | 27.4 | 0.00 | 0.00 | 0.00 | 61 | 998.9 |